Location: Duac?
(36.9744°N, 30.6500°E)
Time: 12:24:21
(UTC+00:00)

Cosmos 1238 Rocket - Pass Details

Date: 05 August 2024
Orbit: 365 x 857 km, 82.9° (Epoch: 11 September)

Event Time Altitude Azimuth Distance (km) Brightness Sun altitude
Rises 18:33:19 0° 359° (N) 3,126 7.2 -17.0°
Reaches altitude 10° 18:35:36 10° 5° (N) 2,272 6.4 -17.4°
Maximum altitude 18:40:40 53° 81° (E) 994 3.8 -18.2°
Enters shadow 18:42:56 33° 140° (SE) 1,376 4.2 -18.6°
